Location: Barrio de Buenos Aires
(28.4500°N, 16.2667°W)
Time: 18:40:38
(UTC+00:00)

Haruka - Pass Details

Date: 24 January 2020
Orbit: 541 x 21210 km, 31.3° (Epoch: 25 February)

Event Time Altitude Azimuth Distance (km) Brightness Sun altitude
Rises 20:32:06 0° 273° (W) 2,680 7.1 -25.0°
Reaches altitude 10° 20:33:47 10° 277° (W) 1,855 6.0 -25.4°
Maximum altitude 20:37:14 66° 0° (N) 845 3.0 -26.2°
Enters shadow 20:37:21 65° 10° (N) 858 3.0 -26.2°
